EW9530 Weather Reports


time (UTC)temp
C
wind
direction
speed
KPH
gust
KPH
rain 1hr
cm
rain 24hr
cm
rain mn
cm
humidity
%
barometer
mb
20260506174650 19 141 4.8 17.7 0.00 0.00 0.00 56 1012.2
20260506173155 20 129 6.4 19.3 0.00 0.00 0.00 55 1011.9
20260506171650 20 169 4.8 14.5 0.00 0.00 0.00 52 1011.8
20260506164652 21 143 1.6 16.1 0.00 0.05 0.00 43 1011.7
20260506163157 21 267 1.6 17.7 0.00 0.05 0.00 39 1011.6
20260506161649 21 167 4.8 19.3 0.00 0.05 0.00 40 1011.5
20260506154644 21 290 3.2 24.1 0.00 0.33 0.00 41 1011.5
20260506153135 21 103 0.0 25.7 0.00 0.33 0.00 40 1011.5
20260506151652 21 219 8.0 20.9 0.00 0.33 0.00 41 1011.7
20260506144651 21 245 9.7 19.3 0.00 0.69 0.00 40 1012.0
20260506143137 21 273 4.8 22.5 0.00 0.69 0.00 41 1012.1
20260506141650 21 261 4.8 20.9 0.00 0.69 0.00 41 1012.3
20260506140147 21 247 14.5 22.5 0.00 0.69 0.00 42 1012.4
20260506134650 20 215 9.7 22.5 0.00 0.69 0.00 40 1012.5
20260506133138 21 278 12.9 22.5 0.00 0.69 0.00 41 1012.6
20260506131651 20 304 3.2 14.5 0.00 0.69 0.00 43 1012.7
20260506124650 20 151 0.0 24.1 0.00 0.79 0.00 44 1012.8
20260506123139 20 212 0.0 20.9 0.00 0.79 0.00 45 1012.9
20260506121652 20 225 6.4 16.1 0.00 0.79 0.00 44 1013.0
20260506120149 19 281 6.4 20.9 0.00 0.79 0.00 45 1013.1
20260506114650 19 248 9.7 25.7 0.00 0.81 0.00 48 1013.1
20260506113136 18 189 3.2 22.5 0.00 0.81 0.00 48 1013.3
20260506111650 18 193 1.6 6.4 0.00 0.81 0.00 58 1013.5
20260506110148 18 132 0.0 4.8 0.00 0.81 0.00 59 1013.6
20260506104653 18 217 3.2 9.7 0.00 0.81 0.00 62 1013.6
20260506103138 17 34 4.8 12.9 0.00 0.81 0.00 63 1014.0
20260506101651 17 306 1.6 12.9 0.00 0.81 0.00 64 1014.0
20260506100152 16 97 3.2 12.9 0.00 0.81 0.00 66 1014.2
20260506094654 16 45 3.2 9.7 0.00 0.81 0.00 67 1014.4
20260506093155 15 68 3.2 11.3 0.00 0.81 0.00 68 1014.5
20260506091652 15 40 1.6 12.9 0.00 0.81 0.00 71 1014.6
20260506090149 15 63 0.0 12.9 0.00 0.81 0.00 73 1014.5
20260506084650 13 21 4.8 14.5 0.00 0.81 0.00 74 1014.6
20260506083156 13 91 6.4 14.5 0.00 0.81 0.00 76 1014.5
20260506081652 13 67 8.0 17.7 0.00 0.81 0.00 78 1014.5
20260506073156 10 332 1.6 9.7 0.00 0.81 0.00 96 1014.5
20260506071650 10 48 3.2 9.7 0.00 0.81 0.00 96 1014.5
20260506070149 9 39 1.6 4.8 0.00 0.81 0.00 96 1014.5
20260506061653 7 21 3.2 9.7 0.00 0.81 0.00 96 1014.5
20260506050149 7 5 3.2 8.0 0.00 0.81 0.00 95 1013.9
20260506044650 7 312 0.0 0.0 0.00 0.81 0.00 95 1013.7
20260506043154 7 10 0.0 0.0 0.00 0.81 0.00 95 1013.6
20260506041652 7 10 0.0 0.0 0.00 0.81 0.00 95 1013.6
20260506040149 7 10 0.0 4.8 0.00 0.81 0.00 95 1013.4
20260506034651 7 42 3.2 9.7 0.00 0.81 0.00 95 1013.3
20260506033155 8 26 4.8 12.9 0.00 0.81 0.00 95 1013.2
20260506031650 8 15 3.2 9.7 0.00 0.81 0.00 95 1013.2
20260506024652 8 9 4.8 9.7 0.00 0.81 0.00 95 1013.1
20260506023158 8 48 3.2 8.0 0.00 0.81 0.00 95 1013.1
20260506021651 9 346 1.6 6.4 0.00 0.81 0.00 95 1013.0
20260506020149 9 350 0.0 8.0 0.00 0.81 0.00 95 1012.9
20260506014652 9 11 3.2 8.0 0.00 0.81 0.00 95 1012.9
20260506013155 9 10 1.6 12.9 0.00 0.81 0.00 95 1012.8
20260506011651 8 16 0.0 4.8 0.00 0.81 0.00 94 1012.8
20260506010203 9 11 0.0 4.8 0.00 0.81 0.00 94 1012.9
20260506004650 9 11 1.6 6.4 0.00 0.81 0.00 94 1013.1
20260506003154 9 36 4.8 12.9 0.00 0.81 0.00 94 1013.2
20260506001651 9 39 6.4 9.7 0.00 0.81 0.00 94 1013.3
20260506000151 9 42 1.6 6.4 0.00 0.81 0.00 94 1013.3
20260505234651 10 40 0.0 0.0 0.00 0.81 0.00 94 1013.3
20260505233156 10 40 0.0 6.4 0.00 0.81 0.00 94 1013.2
20260505231652 10 39 1.6 8.0 0.00 0.81 0.00 94 1013.2
20260505224654 10 63 0.0 0.0 0.00 0.81 0.00 94 1013.1
20260505223155 10 63 0.0 6.4 0.00 0.81 0.00 94 1013.1
20260505221652 10 46 1.6 8.0 0.00 0.81 0.00 93 1013.4
20260505214651 11 45 0.0 0.0 0.00 0.81 0.81 93 1013.6
20260505213156 11 45 0.0 0.0 0.00 0.81 0.81 93 1013.6
20260505211651 11 45 0.0 0.0 0.00 0.81 0.81 93 1013.5
20260505204647 11 48 0.0 4.8 0.00 0.84 0.81 93 1013.3
20260505203157 11 267 0.0 0.0 0.00 0.84 0.81 93 1013.1
20260505201651 11 267 0.0 0.0 0.00 0.84 0.81 92 1012.8
20260505194651 11 184 0.0 4.8 0.00 0.89 0.81 91 1012.3
20260505193157 12 184 0.0 0.0 0.00 0.89 0.81 91 1012.1
20260505191608 12 223 0.0 0.0 0.00 0.89 0.81 90 1011.8
20260505190148 12 246 0.0 3.2 0.00 0.89 0.81 90 1011.9
20260505184651 12 46 0.0 0.0 0.00 0.99 0.81 89 1012.0
20260505183138 13 46 0.0 3.2 0.00 0.99 0.81 88 1012.1
20260505181652 13 329 0.0 9.7 0.00 0.99 0.81 87 1012.0